CAPE
93 236 125 165 186 117 82 33 119 185 209 422 422 719 313 377 461 601 397 476 126 580 635 851 1022 1143 1357 1188 1338 1362 1387 1136 1144
53 90 209 244 180 161 138 45 89 147 290 320 328 1191 622 670 765 335 720 729 866 624 858 1282 1349 1194 1215 1449 1174 1103 1422 1243 1479
133 206 24 142 282 296 127 140 135 505 565 698 408 526 1085 1069 809 431 687 1070 1286 860 649 672 983 851 1334 1442 1492 1131 1235 1055 1167
68 82 137 262 163 79 82 141 82 126 102 276 467 926 1058 1248 1076 1207 893 875 1091 1294 631 561 188 380 729 772 1187 1414 1245 1169 1094
1 2 10 59 24 0 16 0 13 156 46 87 249 336 731 1381 1591 1460 1081 1058 1575 1110 837 782 651 90 0 342 796 1362 1421 1197 987
0 1 1 2 1 0 0 0 41 41 0 26 74 92 282 971 1723 1816 1319 1396 1523 1660 1441 949 806 789 651 856 1030 1553 1386 1167 975
0 0 0 0 0 0 0 0 1 1 0 4 24 46 102 214 341 820 1488 1929 1829 1811 1778 1666 1445 1329 1280 1542 1568 1394 1564 1499 1132
0 0 0 0 0 0 0 0 0 0 0 0 0 6 22 1 146 332 292 408 1412 1688 1658 1967 1788 1366 1156 1709 1754 1410 1261 1463 1637
3 1 1 3 0 0 0 0 0 0 0 0 0 0 14 19 22 18 0 0 427 1424 1536 1663 1765 1885 1682 1351 1441 1751 1484 1387 1284
0 0 0 0 0 0 0 0 0 0 0 0 0 0 0 0 0 0 8 20 148 344 597 1216 1318 1284 1259 1601 1840 1545 1124 797 759
0 0 0 0 0 0 0 0 0 1 0 0 0 0 0 0 0 0 0 0 0 13 32 273 565 978 1353 1370 1341 1452 1347 1297 815
0 0 0 0 0 0 0 0 0 0 0 0 0 0 0 0 0 0 0 0 0 0 0 0 24 238 512 1090 1119 1163 1305 1247 1275
0 0 0 0 0 0 0 0 0 0 0 0 0 0 0 0 0 0 0 0 0 0 0 0 0 0 58 249 661 758 817 777 939
0 0 0 0 0 0 0 0 0 0 0 0 0 0 0 0 0 0 0 0 0 0 0 0 0 0 2 137 437 273 201 387 608
0 0 0 0 0 0 0 0 0 0 0 0 0 0 0 0 0 0 0 0 0 0 0 0 0 0 0 21 0 0 0 5 5
0 0 0 0 0 0 0 0 0 0 0 0 0 0 0 0 0 0 0 0 0 0 0 0 0 0 0 0 0 0 0 0 0
0 0 0 0 0 0 0 0 0 0 0 0 0 0 0 0 0 0 0 0 0 0 0 0 0 0 0 0 0 0 0 0 0
0 0 0 0 0 0 0 0 0 0 0 0 0 0 0 0 0 0 0 0 0 0 0 0 0 0 0 0 0 0 0 0 0
0 0 0 0 0 0 0 0 0 0 0 0 0 0 0 0 0 0 0 0 0 0 0 0 0 0 0 0 0 0 0 0 0
0 0 0 0 0 0 0 0 0 0 0 0 0 0 0 0 0 0 0 0 0 0 0 0 0 0 0 0 0 0 0 0 0
CIN
-87 -46 -63 -36 -14 -31 -30 -106 -82 -80 -78 -46 -40 -20 -44 -38 -35 -37 -52 -38 -70 -33 -30 -34 -26 -20 -16 -19 -22 -20 -19 -22 -30
-112 -72 -66 -49 -66 -18 -27 -59 -98 -77 -88 -67 -61 -27 -35 -34 -25 -47 -32 -26 -36 -35 -31 -31 -29 -23 -23 -17 -21 -16 -13 -23 -22
-60 -133 -139 -95 -70 -59 -132 -91 -55 -57 -77 -70 -82 -59 -43 -35 -30 -38 -29 -20 -11 -26 -49 -58 -50 -41 -41 -26 -22 -18 -20 -26 -19
-211 -194 -172 -152 -119 -111 -117 -95 -73 -126 -127 -93 -53 -49 -60 -41 -27 -24 -23 -22 -20 -20 -53 -54 -95 -76 -51 -65 -41 -22 -26 -20 -31
-0 -15 -286 -268 -307 -0 -186 -5 -40 -62 -137 -99 -117 -44 -45 -39 -45 -26 -18 -23 -16 -23 -39 -58 -60 -75 -0 -91 -53 -34 -12 -20 -36
-0 -0 -0 -0 -0 -0 -0 -0 -140 -123 -0 -148 -127 -50 -104 -31 -7 -18 -15 -22 -28 -24 -23 -50 -65 -68 -71 -52 -51 -25 -20 -31 -36
-0 -0 -0 -0 -0 -0 -0 -0 -147 -0 -0 -75 -122 -59 -109 -102 -102 -33 -21 -13 -16 -20 -25 -14 -20 -33 -37 -21 -17 -14 -12 -23 -38
-0 -0 -0 -0 -0 -0 -0 -0 -0 -0 -0 -0 -0 -128 -116 -113 -128 -85 -132 -106 -8 -10 -17 -14 -13 -17 -29 -11 -5 -18 -17 -20 -22
-0 -2 -1 -2 -0 -0 -0 -0 -0 -0 -0 -0 -0 -12 -191 -178 -63 -118 -4 -2 -59 -13 -1 -2 -4 -4 -7 -12 -11 -13 -21 -14 -13
-0 -0 -0 -0 -0 -0 -0 -0 -0 -0 -0 -0 -0 -0 -0 -0 -0 -0 -142 -139 -164 -128 -99 -44 -18 -21 -29 -16 -7 -8 -17 -38 -31
-0 -0 -0 -0 -0 -0 -0 -0 -0 -10 -0 -0 -0 -0 -0 -0 -0 -0 -0 -0 -0 -133 -99 -140 -82 -47 -9 -9 -12 -14 -21 -23 -38
-0 -0 -0 -0 -0 -0 -0 -0 -0 -0 -0 -0 -0 -0 -0 -0 -0 -0 -0 -0 -0 -0 -0 -0 -256 -135 -73 -17 -18 -19 -13 -15 -30
-0 -0 -0 -0 -0 -0 -0 -0 -0 -0 -0 -0 -0 -0 -0 -0 -0 -0 -0 -0 -0 -0 -0 -0 -0 -0 -210 -110 -31 -30 -27 -41 -32
-0 -0 -0 -0 -0 -0 -0 -0 -0 -0 -0 -0 -0 -0 -0 -0 -0 -0 -0 -0 -0 -0 -0 -0 -0 -0 -39 -123 -20 -95 -142 -106 -72
-0 -0 -0 -0 -0 -0 -0 -0 -0 -0 -0 -0 -0 -0 -0 -0 -0 -0 -0 -0 -0 -0 -0 -0 -0 -0 -0 -167 -0 -0 -0 -107 -105
-0 -0 -0 -0 -0 -0 -0 -0 -0 -0 -0 -0 -0 -0 -0 -0 -0 -0 -0 -0 -0 -0 -0 -0 -0 -0 -0 -0 -0 -0 -0 -0 -0
-0 -0 -0 -0 -0 -0 -0 -0 -0 -0 -0 -0 -0 -0 -0 -0 -0 -0 -0 -0 -0 -0 -0 -0 -0 -0 -0 -0 -0 -0 -0 -0 -0
-0 -0 -0 -0 -0 -0 -0 -0 -0 -0 -0 -0 -0 -0 -0 -0 -0 -0 -0 -0 -0 -0 -0 -0 -0 -0 -0 -0 -0 -0 -0 -0 -0
-0 -0 -0 -0 -0 -0 -0 -0 -0 -0 -0 -0 -0 -0 -0 -0 -0 -0 -0 -0 -0 -0 -0 -0 -0 -0 -0 -0 -0 -0 -0 -0 -0
-0 -0 -0 -0 -0 -0 -0 -0 -1 -0 -0 -0 -0 -0 -0 -0 -0 -0 -0 -0 -0 -0 -0 -0 -0 -0 -0 -0 -0 -0 -0 -0 -0
Wind_Speed
30 27 23 28 12 11 11 8 9 7 6 6 8 6 8 7 4 3 4 22 25 25 20 16 23 21 19 19 19 20 19 20 21
26 25 28 29 27 14 15 16 12 9 7 7 8 5 6 4 14 12 18 24 21 22 8 11 15 19 20 20 18 20 18 19 20
15 16 17 23 24 20 15 21 14 12 12 8 9 9 6 8 10 17 24 28 27 11 5 7 14 17 17 20 19 17 18 18 19
7 9 12 9 13 13 14 12 19 15 16 17 22 13 9 11 27 9 7 30 28 7 3 10 14 15 14 17 21 20 17 17 18
8 8 9 7 7 7 10 17 20 23 21 13 14 24 28 8 12 18 11 20 31 24 2 2 11 5 23 15 22 22 17 18 19
7 7 8 8 6 6 9 8 17 18 18 15 17 23 21 27 23 17 15 12 32 31 14 3 10 25 18 18 24 23 19 19 19
6 6 7 7 7 7 8 10 12 13 13 14 15 24 21 23 23 25 26 18 21 31 31 26 17 18 26 29 16 24 27 20 20
4 6 7 7 8 8 9 11 13 14 13 13 13 19 23 23 22 22 17 22 29 29 30 26 21 26 28 26 25 21 28 28 15
3 5 6 7 8 9 10 11 13 14 14 12 11 10 13 17 22 15 17 32 27 20 23 25 23 27 31 28 28 27 20 24 27
5 6 6 7 9 10 12 12 13 15 15 14 12 12 15 16 15 15 14 13 22 23 23 23 26 28 32 33 31 32 34 31 27
3 5 7 8 8 10 12 13 16 12 14 15 15 15 15 15 17 16 17 19 20 24 24 23 23 25 28 31 32 32 34 36 35
3 5 8 10 9 9 12 13 15 14 14 15 16 17 17 17 17 18 20 21 22 23 26 27 27 27 29 30 32 31 32 35 35
6 8 10 12 12 12 14 16 16 15 16 17 19 20 21 21 21 22 21 20 23 24 25 27 28 30 31 32 33 33 34 34 33
10 11 13 14 14 15 17 18 18 19 19 21 23 23 24 24 24 25 25 25 25 26 26 27 27 28 29 30 29 27 29 30 31
15 15 15 15 17 18 19 19 21 23 24 25 25 26 26 26 27 27 28 29 28 29 29 28 29 27 26 24 26 24 25 25 25
15 16 18 19 20 21 22 22 23 24 25 27 28 29 29 30 30 29 30 30 31 31 31 29 28 26 27 26 27 27 27 28 29
16 17 19 20 20 21 22 22 23 24 25 26 27 28 29 30 30 31 31 32 31 32 31 31 32 33 34 33 33 33 31 33 36
16 17 18 19 20 21 22 22 22 24 25 26 28 28 29 29 30 31 32 31 32 33 33 32 35 36 35 37 38 37 34 36 38
15 16 17 18 19 19 20 21 23 23 24 25 27 28 29 30 31 32 32 34 35 35 36 36 36 37 38 38 37 38 39 40 39
14 15 16 18 18 19 20 22 23 24 25 25 27 28 29 31 31 33 35 36 36 38 38 39 39 40 40 40 40 41 43 44 43
Wind_Direction
245 248 246 244 208 191 235 186 172 165 159 171 158 193 161 143 109 12 47 183 183 181 155 123 164 145 138 138 133 154 139 164 188
255 252 246 244 248 237 244 171 181 177 174 173 166 203 186 204 149 142 152 181 162 158 76 76 128 139 142 146 135 147 135 157 182
262 271 262 251 250 256 257 247 240 239 251 233 172 175 218 246 155 157 174 226 210 123 341 67 108 133 137 152 143 136 141 154 174
324 313 278 260 257 258 253 261 254 247 260 267 262 256 244 255 245 245 153 207 222 296 63 118 134 133 135 138 176 162 144 149 157
334 332 320 323 297 291 314 297 255 245 262 290 287 270 257 236 256 259 266 200 211 233 333 345 294 359 210 143 184 187 155 166 180
342 338 332 341 331 320 342 3 264 267 270 284 260 281 274 256 257 258 264 269 203 214 280 318 297 256 278 279 194 195 172 182 185
359 5 358 9 1 341 337 338 328 325 317 293 292 260 278 268 265 259 257 264 261 237 240 254 276 278 254 231 172 229 249 186 193
21 27 22 19 30 17 356 353 344 337 341 355 345 253 266 273 278 267 269 274 256 255 253 262 275 263 258 266 269 282 259 256 180
355 17 12 9 15 17 8 357 3 0 1 348 348 326 299 279 267 300 286 278 267 269 266 266 272 267 260 270 271 274 289 281 277
26 24 11 3 5 7 7 2 4 7 10 4 355 319 293 300 295 300 300 291 269 272 274 276 274 273 266 265 271 270 268 275 286
9 358 7 6 2 5 5 9 5 13 17 15 8 358 346 331 312 309 300 294 283 279 282 287 288 287 282 275 276 277 274 271 274
357 341 343 343 357 354 355 356 350 356 2 357 351 347 345 340 337 326 316 310 301 295 284 285 287 288 287 286 282 285 284 282 281
336 337 328 320 327 334 329 334 336 333 332 333 329 328 326 325 324 323 322 321 311 305 301 295 292 290 287 287 288 289 286 287 287
308 317 315 317 322 324 323 324 324 322 322 317 316 316 317 318 317 313 313 312 312 310 305 303 301 299 296 295 297 302 300 294 290
295 301 307 315 316 318 322 325 318 312 312 316 316 314 312 312 310 310 309 307 306 306 304 303 302 304 306 308 308 310 311 312 306
298 300 305 308 309 311 316 318 317 312 315 317 314 312 310 308 307 307 306 305 304 303 302 303 307 307 307 307 309 307 307 304 302
301 303 304 309 309 309 311 316 316 315 320 320 319 315 312 312 312 311 309 306 305 304 304 303 302 299 297 300 301 302 302 299 297
304 308 310 311 310 311 313 317 319 319 323 323 318 316 315 314 315 314 311 310 308 306 306 306 303 301 300 297 295 298 301 299 298
306 307 311 311 313 315 317 318 318 320 323 323 321 318 318 317 315 312 311 309 306 305 305 305 305 304 302 298 298 297 296 295 296
303 307 311 312 314 316 317 315 315 318 319 321 320 318 318 317 317 315 312 310 308 305 305 304 303 301 302 301 299 298 295 292 293